Flag for U.S.A. Weather past 2 weeks in San Jose, California, U.S.A.

Now
57 °F

Mostly cloudy.


Feels Like: 57 °F
Forecast: 56 / 63 °F
Wind: No wind

Location: San Jose International Airport

Current Time: Dec 21, 2014 at 7:31:50 AM

Latest Report: Dec 21, 2014 at 6:53 AM


Visibility: 10 mi

Pressure: 30.29 "Hg

Humidity: 87%

Dew point: 53 °F

Location of San JoseLocation

Historic Weather in San Jose — Graph

°F

San Jose temperature yesterday

Maximum temperature yesterday: 62 °F (at 5:53 AM)
Minimum temperature yesterday: 54 °F (at 6:53 AM)
Average temperature yesterday: 58 °F

Past Weeks' High & Low Weather Summary

 TemperatureHumidityPressure
High71 °F (Dec 8, 2:53 PM)100% (Dec 7, 2:53 AM)30.27 "Hg (Dec 7, 2:53 AM)
Low43 °F (Dec 13, 3:53 AM)51% (Dec 8, 1:53 PM)29.55 "Hg (Dec 11, 6:53 AM)
Average55 °F85%30.04 "Hg
* Reported Dec 6 5:53 AM — Dec 21 5:53 AM, San Jose, Weather by CustomWeather, © 2014

Note: Actual official high and low records may vary slightly from our data, if they occured in-between our weather recording intervals... More about our weather records

Advertising

San Jose weather history for previous 24 hours

 ConditionsComfort  
Time TempWeatherWind HumidityBarometerVisibility
5:53 AM
Dec 21
57 °FPassing clouds.3 mph87%30.27 "Hg10 mi
4:53 AM57 °FOvercast.No wind87%30.27 "Hg10 mi
3:53 AM57 °FOvercast.3 mph87%30.27 "Hg10 mi
2:53 AM58 °FOvercast.6 mph81%30.27 "Hg10 mi
1:53 AM57 °FOvercast.3 mph87%30.27 "Hg10 mi
12:53 AM58 °FOvercast.8 mph84%30.25 "Hg10 mi
11:53 PM
Dec 20
58 °FOvercast.6 mph84%30.26 "Hg10 mi
10:53 PM59 °FPassing clouds.6 mph81%30.25 "Hg10 mi
9:53 PM59 °FPassing clouds.5 mph78%30.26 "Hg10 mi
8:53 PM58 °FPassing clouds.6 mph81%30.25 "Hg10 mi
7:53 PM59 °FPassing clouds.No wind81%30.24 "Hg10 mi
6:53 PM60 °FPassing clouds.3 mph67%30.23 "Hg10 mi
5:53 PM60 °FOvercast.No wind69%30.22 "Hg10 mi
4:53 PM61 °FOvercast.No wind67%30.21 "Hg10 mi
3:53 PM61 °FOvercast.No wind70%30.20 "Hg10 mi
2:53 PM61 °FMore clouds than sun.No wind72%30.19 "Hg10 mi
1:53 PM61 °FOvercast.No wind72%30.19 "Hg10 mi
12:53 PM60 °FMore clouds than sun.No wind78%30.19 "Hg10 mi
11:53 AM59 °FMostly cloudy.No wind84%30.20 "Hg10 mi
10:53 AM58 °FMore clouds than sun.No wind90%30.21 "Hg10 mi
9:53 AM57 °FMore clouds than sun.No wind93%30.22 "Hg10 mi
8:53 AM55 °FMostly cloudy.3 mph100%30.21 "Hg10 mi
7:53 AM54 °FMore clouds than sun.3 mph100%30.15 "Hg10 mi
Weather by CustomWeather, © 2014

See weather overviewHow to use our weather pages